Location: Plzen
(49.7500°N, 13.3670°E)
Time: 05:22:58
(UTC+02:00)

ISS - Pass Details

Date: 22 May 2021
Orbit: 417 x 422 km, 51.6° (Epoch: 13 June)

Event Time Altitude Azimuth Distance (km) Brightness Sun altitude
Rises 01:21:20 0° 287° (WNW) 2,370 0.2 -19.8°
Reaches altitude 10° 01:23:35 10° 277° (W) 1,504 -0.9 -19.7°
Enters shadow 01:24:07 13° 272° (W) 1,309 -1.3 -19.7°
